Tehachapi, CA

9:41 PM PDT on September 23, 2017 (GMT -0700)
Tehachapi Municipal

Weather History for KTSP - February, 2012

Change the Weather History Date:

Friday, February 3, 2012

  Actual Average Record
Temperature  
Mean Temperature 41 °F -  
Max Temperature 50 °F 52 °F 66 °F (2015)
Min Temperature 32 °F 30 °F 23 °F (2014)
Degree Days  
Heating Degree Days 24    
Moisture  
Dew Point 8 °F    
Average Humidity 25    
Maximum Humidity 38    
Minimum Humidity 17    
Precipitation  
Precipitation 0.00 in - - ()
Sea Level Pressure  
Sea Level Pressure 30.10 in    
Wind  
Wind Speed 14 mph (SE)    
Max Wind Speed 21 mph    
Max Gust Speed 29 mph    
Visibility 9 miles    
Events      
Averages and records for this station are not official NWS values.
T = Trace of Precipitation, MM = Missing Value Source: NWS Daily Summary

Daily Weather History Graph

Daily Weather History Graph

Search for Another Location

Airport or City:

Trip Planner

Search our weather history database for the weather conditions in past years. The results will help you decide how hot, cold, wet, or windy it might be!

Date:

Astronomy

Feb. 03, 2012 Rise Set
Actual Time 6:51 AM PST 5:23 PM PST
Civil Twilight 6:25 AM PST 5:50 PM PST
Nautical Twilight 5:54 AM PST 6:20 PM PST
Astronomical Twilight 5:24 AM PST 6:50 PM PST
Moon 1:34 PM PST (2/3) 3:26 AM PST (2/3)
Length of Visible Light 11h 25m
Length of Day
10h 32m
Waxing Gibbous, 82% of the Moon is Illuminated
Feb 3
Waxing Gibbous
Feb 7
Full
Feb 14
Last Quarter
Feb 21
New
Feb 29
First Quarter

Hourly Weather History & Observations

Time (PST) Temp. Windchill Dew Point Humidity Pressure Visibility Wind Dir Wind Speed Gust Speed Precip Events Conditions
12:15 AM 39.2 °F 31.6 °F 6.8 °F 26% 30.07 in 10.0 mi ESE 12.7 mph 20.7 mph N/A   Unknown
12:35 AM - - - N/A% - - North - - N/A   Unknown
12:55 AM - - - N/A% - - North - - N/A   Unknown
1:15 AM 37.4 °F 29.3 °F 6.8 °F 28% 30.08 in 10.0 mi ESE 12.7 mph - N/A   Unknown
1:35 AM 37.4 °F - 6.8 °F 28% - 10.0 mi North - - N/A   Unknown
1:55 AM - - - N/A% - - North - - N/A   Unknown
2:15 AM - - - N/A% - - North - - N/A   Unknown
2:35 AM - - - N/A% - - North - - N/A   Unknown
2:55 AM 37.4 °F 28.9 °F 6.8 °F 28% 30.09 in 10.0 mi ESE 13.8 mph 18.4 mph N/A   Unknown
3:15 AM 35.6 °F 27.1 °F 6.8 °F 30% 30.09 in 10.0 mi ESE 12.7 mph - N/A   Unknown
3:35 AM 35.6 °F 27.1 °F 6.8 °F 30% 30.09 in 10.0 mi East 12.7 mph 16.1 mph N/A   Clear
3:55 AM 35.6 °F 28.0 °F 6.8 °F 30% 30.08 in 10.0 mi ESE 10.4 mph - N/A   Clear
4:15 AM 33.8 °F 24.8 °F 6.8 °F 32% 30.08 in 10.0 mi East 12.7 mph - N/A   Clear
4:35 AM - - - N/A% - - North - - N/A   Unknown
4:55 AM - - - N/A% - - North - - N/A   Unknown
5:15 AM - - - N/A% - - North - - N/A   Unknown
5:35 AM - - - N/A% - - North - - N/A   Unknown
5:55 AM - - - N/A% 30.08 in - ESE 11.5 mph - N/A   Unknown
6:15 AM - - - N/A% 30.09 in 10.0 mi ESE 11.5 mph - N/A   Unknown
6:35 AM 33.8 °F 25.8 °F 6.8 °F 32% 30.10 in 10.0 mi ESE 10.4 mph - N/A   Unknown
6:55 AM 32.0 °F 23.6 °F 6.8 °F 35% 30.11 in 10.0 mi ESE 10.4 mph - N/A   Clear
7:15 AM 32.0 °F 23.6 °F 6.8 °F 35% 30.11 in 8.0 mi ESE 10.4 mph - N/A   Clear
7:35 AM 35.6 °F 28.0 °F 8.6 °F 33% 30.11 in 9.0 mi ESE 10.4 mph - N/A   Clear
7:55 AM - - - N/A% 30.11 in - SE 13.8 mph - N/A   Unknown
8:15 AM - - - N/A% - - North - - N/A   Unknown
8:35 AM - - - N/A% - - North - - N/A   Unknown
8:55 AM - - - N/A% 30.13 in 9.0 mi ESE 12.7 mph - N/A   Unknown
9:15 AM 46.4 °F 41.1 °F 6.8 °F 20% 30.13 in 9.0 mi SE 11.5 mph - N/A   Clear
9:35 AM 46.4 °F 40.4 °F 6.8 °F 20% 30.13 in 8.0 mi ESE 13.8 mph 19.6 mph N/A   Clear
9:55 AM 46.4 °F 39.5 °F 8.6 °F 22% 30.13 in 10.0 mi SE 17.3 mph 21.9 mph N/A   Clear
10:15 AM 48.2 °F - 8.6 °F 20% 30.13 in 8.0 mi SE 11.5 mph 21.9 mph N/A   Clear
10:35 AM - - - N/A% - 8.0 mi North - - N/A   Clear
10:55 AM - - - N/A% - - North - - N/A   Unknown
11:15 AM 48.2 °F - 8.6 °F 20% 30.12 in 8.0 mi SE 19.6 mph 25.3 mph N/A   Unknown
11:35 AM 48.2 °F - 8.6 °F 20% 30.11 in 9.0 mi SE 19.6 mph 27.6 mph N/A   Clear
11:55 AM 48.2 °F - 8.6 °F 20% 30.11 in 9.0 mi SE 19.6 mph 28.8 mph N/A   Clear
12:15 PM 48.2 °F - 8.6 °F 20% 30.11 in 9.0 mi SE 19.6 mph 25.3 mph N/A   Clear
12:35 PM 50.0 °F - 8.6 °F 19% 30.10 in 8.0 mi SE 19.6 mph 26.5 mph N/A   Clear
12:55 PM 50.0 °F - 8.6 °F 19% 30.10 in 9.0 mi SE 19.6 mph 26.5 mph N/A   Clear
1:15 PM 50.0 °F - 8.6 °F 19% 30.09 in 9.0 mi SE 20.7 mph 26.5 mph N/A   Clear
1:35 PM 48.2 °F - 6.8 °F 19% 30.08 in 10.0 mi SE 23.0 mph 27.6 mph N/A   Clear
1:55 PM 50.0 °F - 6.8 °F 17% 30.08 in 9.0 mi SE 19.6 mph 26.5 mph N/A   Clear
2:15 PM 50.0 °F - 8.6 °F 19% 30.08 in 8.0 mi ESE 16.1 mph 24.2 mph N/A   Clear
2:35 PM 50.0 °F - 8.6 °F 19% 30.08 in 10.0 mi SE 19.6 mph - N/A   Clear
2:55 PM 50.0 °F - 8.6 °F 19% 30.07 in 9.0 mi ESE 17.3 mph 25.3 mph N/A   Clear
3:15 PM 50.0 °F - 6.8 °F 17% 30.08 in 9.0 mi SE 19.6 mph 26.5 mph N/A   Clear
3:35 PM 48.2 °F - 8.6 °F 20% 30.08 in 10.0 mi ESE 17.3 mph 21.9 mph N/A   Clear
3:55 PM 48.2 °F - 8.6 °F 20% 30.08 in 10.0 mi SE 18.4 mph 26.5 mph N/A   Clear
4:15 PM 46.4 °F 39.8 °F 8.6 °F 22% 30.08 in 10.0 mi ESE 16.1 mph 21.9 mph N/A   Clear
4:35 PM 46.4 °F 40.1 °F 8.6 °F 22% 30.08 in 10.0 mi SE 15.0 mph 21.9 mph N/A   Clear
4:55 PM 44.6 °F 38.8 °F 8.6 °F 23% 30.08 in 10.0 mi SE 11.5 mph - N/A   Clear
5:15 PM 44.6 °F 39.2 °F 8.6 °F 23% 30.08 in 9.0 mi SE 10.4 mph - N/A   Clear
5:35 PM 39.2 °F 32.0 °F 10.4 °F 31% 30.09 in 10.0 mi SE 11.5 mph - N/A   Clear
5:55 PM 39.2 °F 32.5 °F 8.6 °F 28% 30.09 in 10.0 mi ESE 10.4 mph - N/A   Clear
6:15 PM - - - N/A% - - North - - N/A   Unknown
6:35 PM - - - N/A% 30.09 in - ESE 9.2 mph - N/A   Unknown
6:55 PM - - - N/A% - - North - - N/A   Unknown
7:15 PM - - - N/A% - - North - - N/A   Unknown
7:35 PM - - - N/A% - - North - - N/A   Unknown
7:55 PM - - - N/A% 30.11 in - ESE 9.2 mph - N/A   Unknown
8:15 PM 37.4 °F 29.8 °F 10.4 °F 33% 30.12 in 10.0 mi ESE 11.5 mph - N/A   Unknown
8:35 PM - - - N/A% - - North - - N/A   Unknown
8:55 PM - - - N/A% - - North - - N/A   Unknown
9:15 PM 35.6 °F 28.0 °F 12.2 °F 38% 30.13 in 10.0 mi ESE 10.4 mph - N/A   Unknown
9:35 PM - - - N/A% - - North - - N/A   Unknown
9:55 PM - - - N/A% - - North - - N/A   Unknown
10:15 PM 37.4 °F 30.3 °F 12.2 °F 36% 30.13 in 10.0 mi ESE 10.4 mph - N/A   Unknown
10:35 PM 35.6 °F 29.2 °F 14.0 °F 41% 30.13 in 10.0 mi ESE 8.1 mph - N/A   Clear
10:55 PM 35.6 °F 27.5 °F 14.0 °F 41% 30.13 in 10.0 mi East 11.5 mph - N/A   Clear
11:15 PM 35.6 °F 27.5 °F 14.0 °F 41% 30.13 in 10.0 mi ESE 11.5 mph - N/A   Clear
11:35 PM 37.4 °F 29.8 °F 14.0 °F 38% 30.13 in 10.0 mi East 11.5 mph - N/A   Clear
11:55 PM - - - N/A% - - North - - N/A   Unknown